Location: Bottom School (historical)
(37.9078°N, 89.3593°W)
Time: 22:06:34
(UTC+00:00)

STRAND 1 - Pass Details

Date: 11 April 2023
Orbit: 767 x 779 km, 98.4° (Epoch: 28 May)

Event Time Altitude Azimuth Distance (km) Brightness Sun altitude
Rises 01:04:49 0° 8° (N) 3,244 ? -7.8°
Reaches altitude 10° 01:07:09 10° 4° (N) 2,313 ? -8.2°
Maximum altitude 01:12:09 58° 287° (WNW) 892 ? -9.1°
Drops below altitude 10° 01:17:07 10° 209° (SSW) 2,302 ? -10.1°
Sets 01:19:27 0° 205° (SSW) 3,226 ? -10.5°
